Regional Weather Roundup
Issued by NWS Sterling, VA

Home | Current Version | Previous Version | Text Only | Print | Product List | Glossary On
Versions: 1 2 3 4 5 6 7 8 9 10 11 12 13 14 15 16 17 18 19 20 21 22 23 24 25 26 27 28 29 30 31 32 33 34 35 36 37 38 39 40 41 42 43 44 45 46 47 48 49 50
000
ASUS41 KLWX 041910
RWRLWX

REGIONAL WEATHER ROUNDUP
NATIONAL WEATHER SERVICE BALTIMORE MD/WASHINGTON DC
300 PM EDT FRI SEP 04 2015

Note: "FAIR" indicates few or no clouds below 12,000 feet
with no significant weather and/or obstructions to visibility.
 TC=TEMPERATURE CELSIUS

 * =Non NWS site. Station does not report precipitation (e.g. rain,
    snow, etc.), thunder, or fog.

DCZ001-MDZ009-015-VAZ040>042-051-053>054-042000-
WASHINGTON METRO

CITY           SKY/WX    TMP DP  RH WIND       PRES   REMARKS
WASHINGTON NAT PTSUNNY   89  68  49 SE10      30.01S HX  93
DULLES         PTSUNNY   80  65  59 NW6       30.01F THUNDER
ANDREWS AFB    MOSUNNY   87  69  53 SE10      30.02S HX  91
FT BELVOIR     PTSUNNY   86  69  56 SE3       30.01R HX  90
QUANTICO       LGT RAIN  76  70  82 S16G26    30.02S
COLLEGE PARK*  MOSUNNY   91  64  40 E7        30.01S HX  93
LEESBURG*      MOSUNNY   77  73  88 NW8       30.03F
GAITHERSBURG*  MOSUNNY   90  66  45 E7        30.06F HX  92

$$

MDZ006>007-011-014-042000-
BALTIMORE METRO

CITY           SKY/WX    TMP DP  RH WIND       PRES   REMARKS
BWI AIRPORT    PTSUNNY   89  67  47 SE10      30.01F HX  92
MD SCIENCE CTR   N/A     91  65  41 MISG      30.01F HX  93
MARTIN STATE   MOSUNNY   90  72  55 CALM      30.03F HX  96
ANNAPOLIS      MOSUNNY   88  71  57 E8        30.01S HX  94
FORT MEADE*    SUNNY     88  66  48 E9        30.04F HX  90

$$

MDZ012-015-019>023-042000-
MARYLAND EASTERN SHORE

CITY           SKY/WX    TMP DP  RH WIND       PRES   REMARKS
OCEAN CITY     MOSUNNY   84  73  69 E10       30.02F HX  90
SALISBURY      MOSUNNY   89  66  46 NE12      30.01F HX  91
BAY BRIDGE AP*   N/A     84  72  65 N6        30.01F
CAMBRIDGE*     MOSUNNY   91  68  46 E8        30.00F HX  95
EASTON*        MOSUNNY   93  66  40 E9        30.04F HX  96

$$

MDZ017>025-042000-
SOUTHERN MARYLAND

CITY           SKY/WX    TMP DP  RH WIND       PRES   REMARKS
PATUXENT RIVER MOSUNNY   89  70  53 VRB6      30.00F HX  94
ST INIGOES     MOSUNNY   87  71  58 SE7       29.99F HX  93
LEONARDTOWN*   NOT AVBL

$$

MDZ003>005-042000-
NORTH CENTRAL MARYLAND

CITY           SKY/WX    TMP DP  RH WIND       PRES   REMARKS
FREDERICK*     SUNNY     84  66  54 E5        30.05S
HAGERSTOWN APT MOSUNNY   90  65  43 E9        30.03F HX  92
WESTMINSTER*   TSTM      77  68  73 N9        30.08R

$$

MDZ501>502-042000-
WESTERN MARYLAND

CITY           SKY/WX    TMP DP  RH WIND       PRES   REMARKS
OAKLAND*       CLOUDY    72  61  68 E5        30.18S
CUMBERLAND*    MOSUNNY   91  63  38 NE5       30.08S HX  92

$$

VAZ025>031-042000-
SHENANDOAH VALLEY

CITY           SKY/WX    TMP DP  RH WIND       PRES   REMARKS
WINCHESTER*    MOSUNNY   91  63  38 E7        30.03F HX  92
FRONT ROYAL*   FAIR      90  68  48 E3        30.03S HX  93
LURAY*         FAIR      81  66  61 NW3       30.05F
NEW MARKET*    MOCLDY    72  69  88 CALM      30.06F
STAUNTON*      PTSUNNY   85  67  53 NW5       30.08F
WAYNESBORO*    FAIR      84  66  55 NE3       30.08F

$$

WVZ021-048>050-054>055-042000-
EASTERN WEST VIRGINIA PANHANDLE

CITY           SKY/WX    TMP DP  RH WIND       PRES   REMARKS
MARTINSBURG    MOSUNNY   92  64  39 VRB3      30.03F HX  93
PETERSBURG*    PTSUNNY   72  68  87 W7        30.08F

$$

VAZ036>039-050-042000-
CENTRAL FOOTHILLS

CITY           SKY/WX    TMP DP  RH WIND       PRES   REMARKS
CHARLOTTESVILL PTSUNNY   88  68  51 N3        30.02F HX  91
CULPEPER*      PTSUNNY   89  69  51 CALM      30.01S HX  93
ORANGE*        PTSUNNY   90  66  45 N8        30.02S HX  92
GORDONSVILLE*  FAIR      88  70  55 CALM      30.00F HX  93
WARRENTON*     CLOUDY    90  71  53 NE5       30.01R HX  96

$$

VAZ055>057-042000-
NORTH AND CENTRAL PIEDMONT

CITY           SKY/WX    TMP DP  RH WIND       PRES   REMARKS
FREDERICKSBRG* MOSUNNY   88  65  47 NE17G28   30.00R
STAFFORD*      MOSUNNY   83  67  57 E10       30.06R

$$

NCZ024-NYZ072-PAZ021-071-VAZ022-071-042000-
OTHER REGIONAL OBSERVATIONS

CITY           SKY/WX    TMP DP  RH WIND       PRES   REMARKS
NEW YORK CITY  MOSUNNY   84  65  52 E8G20     30.13F
PHILADELPHIA   MOSUNNY   90  69  50 E14       30.04R HX  94
PITTSBURGH     PTSUNNY   88  60  38 SW8       30.08S
ROANOKE        MOSUNNY   91  62  37 NE6       30.05F HX  91
RICHMOND       PTSUNNY   89  69  51 E14       29.99S HX  93
RALEIGH        PTSUNNY   85  68  56 NE16G29   29.99S THUNDER

$$

ANZ530>537-042000-
MARINE OBSERVATIONS

STATION/POSITION TIME  TEMP    WIND        PRES
                       AIR SEA DIR/SP/G
                 (UTC) (F)     (DEG/KT/KT) (MB)
THOMAS PT LIGHT  NOT AVBL
BALT KEY BRIDGE  1800   84     140/  7/  8 1016.6F
COVE POINT       1800   82     340/  4/  6 1017.0F
LEWISETTA        1800   82 83  100/  7/  8 1016.0R
SOLOMONS ISLAND  1800      83                N/A
PINEY POINT      1805          140/  9/ 10   N/A

$$




USA.gov is the U.S. government's official web portal to all federal, state and local government web resources and services.